Weather Roundup
Issued by NWS Chicago, IL

Home | Current Version | Previous Version | Graphics & Text | Print | Product List | Glossary On
Versions: 1 2 3 4 5 6 7 8 9 10 11 12 13 14 15 16 17 18 19 20 21 22 23 24 25 26 27 28 29 30 31 32 33 34 35 36 37 38 39 40 41 42 43 44 45 46 47 48 49 50
000
NZUS59 KLOT 030600
HRRLOT

CHICAGO AREA WEATHER ROUNDUP
NATIONAL WEATHER SERVICE CHICAGO/ROMEOVILLE IL
100 AM CDT MON AUG 03 2015

NOTE: "FAIR" INDICATES FEW OR NO CLOUDS BELOW 12,000 FEET WITH NO
SIGNIFICANT WEATHER AND/OR OBSTRUCTIONS TO VISIBILITY.

* THESE STATIONS ARE NOT UNDER NWS QUALITY CONTROL. THEY ALSO MAY NOT
  REPORT WEATHER SUCH AS PRECIPITATION OR FOG.

ILZ005-006-012>014-019>023-030700-
NORTHEAST ILLINOIS

CITY           SKY/WX    TMP DP  RH WIND       PRES   REMARKS
OHARE          CLOUDY    67  66  97 W3        29.75R
6HR MIN TEMP:  67; 6HR MAX TEMP:  87; 6HR PCP:  0.41;

MIDWAY         CLOUDY    70  64  81 W3        29.75R
6HR MIN TEMP:  68; 6HR MAX TEMP:  90;

AURORA         CLOUDY    70  64  81 E3        29.77R
6HR MIN TEMP:  70; 6HR MAX TEMP:  87; 6HR PCP:  0.20;

WAUKEGAN       MOCLDY    66  65  96 SW3       29.74R
6HR MIN TEMP:  65; 6HR MAX TEMP:  86; 6HR PCP:  0.82;

DUPAGE AIRPORT CLOUDY    67  65  93 SE3       29.76R
6HR MIN TEMP:  67; 6HR MAX TEMP:  86; 6HR PCP:  0.56;

WHEELING       NOT AVBL
NORTHERLY IS     N/A     69  64  84 W7          N/A
$$

WIZ051-052-058>065-066-070>072-030700-
SOUTHEAST WISCONSIN

CITY           SKY/WX    TMP DP  RH WIND       PRES   REMARKS
MILWAUKEE      PTCLDY    68  59  73 SW5       29.74R
6HR MIN TEMP:  65; 6HR MAX TEMP:  88; 6HR PCP:  0.46;

KENOSHA*       PTCLDY    64  62  93 W3        29.74R
RACINE*        MOCLDY    66  62  87 CALM      29.75R
$$

INZ001>003-010>013-019-020-030700-
NORTHWEST INDIANA

CITY           SKY/WX    TMP DP  RH WIND       PRES   REMARKS
GARY*          NOT AVBL
MICHIGAN CITY* NOT AVBL
RENSSELAER*    NOT AVBL
$$

LMZ740>746-030700-
SOUTHERN LAKE MICHIGAN

STATION/POSITION TIME  SKY/WX   TEMP WIND        PRES    VSBY
                                AIR  DIR/SP/G
                 (UTC)          (F)  (DEG/KT/KT) (MB)    (MI)
HARRISON CRIB    0500            66  270/ 16/ 18   N/A
BURNHAM HARBOR   0600            69  270/  6/ 15   N/A
CALUMET HARBOR   0500            66  210/  7/ 11   N/A
BURNS HARBOR     0523            67  260/ 14/ 26 1007.5F
MICHIGAN CITY    0500            68  210/ 20/ 26   N/A
$$

ABBREVIATIONS USED IN REMARKS
   TC - TEMPERATURE IN CELSIUS
  WCI - WIND CHILL INDEX
   HX - HEAT INDEX
  VSB - VISIBILITY
$$


USA.gov is the U.S. government's official web portal to all federal, state and local government web resources and services.